Location: Limerick
(52.6650°N, 8.6230°W)
Time: 19:48:31
(UTC+01:00)

ISS - Pass Details

Date: 22 July 2017
Orbit: 400 x 408 km, 51.6° (Epoch: 21 July)

Event Time Altitude Azimuth Distance (km) Brightness Sun altitude
Exits shadow 00:10:45 14° 99° (E) 1,234 -1.7 -14.5°
Drops below altitude 10° 00:11:24 10° 92° (E) 1,455 -1.3 -14.5°
Sets 00:13:41 0° 79° (E) 2,317 -0.1 -14.6°
